Location: Zagreb
(45.8000°N, 16.0000°E)
Time: 01:02:03
(UTC+01:00)

NO-84 - Pass Details

Date: 08 November 2020
Orbit: 323 x 458 km, 55.0° (Epoch: 25 November)

Event Time Altitude Azimuth Distance (km) Brightness Sun altitude
Exits shadow 03:52:06 11° 67° (ENE) 1,377 ? -30.5°
Drops below altitude 10° 03:52:16 10° 69° (ENE) 1,426 ? -30.5°
Sets 03:54:34 0° 86° (E) 2,247 ? -30.1°
